Location: Lafig�re
(44.4503°N, 4.0357°E)
Time: 21:05:12
(UTC+00:00)

Cosmos 1092 Rocket - Pass Details

Date: 01 February 2021
Orbit: 954 x 995 km, 83.0° (Epoch: 07 March)

Event Time Altitude Azimuth Distance (km) Brightness Sun altitude
Rises 03:05:30 0° 2° (N) 3,649 7.2 -42.1°
Reaches altitude 10° 03:08:39 10° 18° (NNE) 2,703 6.6 -41.6°
Maximum altitude 03:13:19 22° 67° (ENE) 1,978 6.1 -40.8°
Drops below altitude 10° 03:17:59 10° 117° (ESE) 2,708 6.7 -40.0°
Sets 03:21:07 0° 132° (SE) 3,658 7.4 -39.5°
